• In Netherlands
  • List of Countries
  • For 7 days
  • Water Temperature
  • Satellite Maps
  • Weather Map
  • Weather Widgets
  • user-avatar
    Login

    Hourly Weather Artashat

    Today, 23 May, Tuesday

    Time Temperature Precipitation Wind Pressure Humidity
    00:00 +7°C° 0 mm 2 mps 599 mmHg 62%
    01:00 +7°C° 0 mm 2 mps 599 mmHg 63%
    02:00 +7°C° 0 mm 2 mps 599 mmHg 64%
    03:00 +6°C° 0 mm 2 mps 599 mmHg 65%
    04:00 +7°C° 0 mm 2 mps 599 mmHg 64%
    05:00 +7°C° 0 mm 2 mps 599 mmHg 62%
    06:00 +8°C° 0 mm 2 mps 599 mmHg 60%
    07:00 +10°C° 0 mm 3 mps 600 mmHg 53%
    08:00 +12°C° 0 mm 3 mps 601 mmHg 46%
    09:00 +13°C° 0 mm 3 mps 602 mmHg 39%
    10:00 +13°C° 0.2 mm 3 mps 601 mmHg 41%
    11:00 +14°C° 0.2 mm 2 mps 601 mmHg 42%
    12:00 +14°C° 0.2 mm 2 mps 601 mmHg 43%
    13:00 +14°C° 0.1 mm 3 mps 601 mmHg 40%
    14:00 +16°C° 0.1 mm 3 mps 601 mmHg 38%
    15:00 +17°C° 0.1 mm 4 mps 601 mmHg 35%
    16:00 +17°C° 0.1 mm 3 mps 601 mmHg 37%
    17:00 +16°C° 0.1 mm 3 mps 601 mmHg 39%
    18:00 +14°C° 0.1 mm 3 mps 601 mmHg 41%
    19:00 +14°C° 0.2 mm 2 mps 600 mmHg 48%
    20:00 +12°C° 0.2 mm 2 mps 600 mmHg 54%
    21:00 +10°C° 0.2 mm 1 mps 600 mmHg 61%
    22:00 +9°C° 0 mm 1 mps 599 mmHg 62%
    23:00 +9°C° 0 mm 1 mps 599 mmHg 63%

    Tomorrow, 24 May, Wednesday

    Time Temperature Precipitation Wind Pressure Humidity
    00:00 +8°C° 0 mm 1 mps 599 mmHg 64%
    01:00 +8°C° 0 mm 1 mps 599 mmHg 65%
    02:00 +8°C° 0 mm 1 mps 599 mmHg 65%
    03:00 +8°C° 0 mm 1 mps 599 mmHg 66%
    04:00 +8°C° 0.1 mm 1 mps 599 mmHg 64%
    05:00 +9°C° 0.1 mm 1 mps 599 mmHg 63%
    06:00 +9°C° 0.1 mm 1 mps 599 mmHg 61%
    07:00 +11°C° 0.2 mm 1 mps 600 mmHg 57%
    08:00 +12°C° 0.2 mm 2 mps 600 mmHg 53%
    09:00 +13°C° 0.2 mm 2 mps 601 mmHg 49%
    10:00 +14°C° 0.3 mm 2 mps 601 mmHg 45%
    11:00 +15°C° 0.3 mm 2 mps 601 mmHg 42%
    12:00 +17°C° 0.3 mm 2 mps 602 mmHg 38%
    13:00 +17°C° 0.2 mm 2 mps 601 mmHg 36%
    14:00 +18°C° 0.2 mm 1 mps 601 mmHg 35%
    15:00 +19°C° 0.2 mm 1 mps 601 mmHg 34%
    16:00 +17°C° 0.2 mm 2 mps 601 mmHg 36%
    17:00 +16°C° 0.2 mm 2 mps 601 mmHg 37%
    18:00 +16°C° 0.2 mm 2 mps 600 mmHg 39%
    19:00 +14°C° 0.2 mm 2 mps 600 mmHg 46%
    20:00 +12°C° 0.2 mm 2 mps 600 mmHg 52%
    21:00 +10°C° 0.2 mm 2 mps 600 mmHg 58%
    22:00 +9°C° 0 mm 2 mps 600 mmHg 61%
    23:00 +8°C° 0 mm 2 mps 600 mmHg 63%

    Day after tomorrow, 25 May, Thursday

    Time Temperature Precipitation Wind Pressure Humidity
    00:00 +7°C° 0 mm 2 mps 600 mmHg 66%
    01:00 +7°C° 0 mm 2 mps 600 mmHg 68%
    02:00 +7°C° 0 mm 1 mps 600 mmHg 69%
    03:00 +7°C° 0 mm 1 mps 599 mmHg 71%
    04:00 +8°C° 0 mm 1 mps 600 mmHg 69%
    05:00 +8°C° 0 mm 1 mps 600 mmHg 66%
    06:00 +9°C° 0 mm 1 mps 601 mmHg 64%
    07:00 +10°C° 0 mm 1 mps 602 mmHg 56%
    08:00 +12°C° 0 mm 1 mps 602 mmHg 49%
    09:00 +14°C° 0 mm 1 mps 603 mmHg 42%
    10:00 +15°C° 0 mm 1 mps 603 mmHg 38%
    11:00 +16°C° 0 mm 2 mps 604 mmHg 34%
    12:00 +17°C° 0 mm 2 mps 604 mmHg 30%
    13:00 +18°C° 0 mm 2 mps 604 mmHg 29%
    14:00 +18°C° 0 mm 2 mps 604 mmHg 27%
    15:00 +18°C° 0 mm 3 mps 604 mmHg 26%
    16:00 +18°C° 0 mm 3 mps 604 mmHg 28%
    17:00 +17°C° 0 mm 3 mps 603 mmHg 31%
    18:00 +16°C° 0 mm 3 mps 603 mmHg 33%
    19:00 +13°C° 0 mm 3 mps 603 mmHg 37%
    20:00 +13°C° 0 mm 2 mps 603 mmHg 41%
    21:00 +10°C° 0 mm 2 mps 602 mmHg 45%
    22:00 +9°C° 0 mm 2 mps 602 mmHg 46%
    23:00 +9°C° 0 mm 2 mps 602 mmHg 48%

    26 May, Friday

    Time Temperature Precipitation Wind Pressure Humidity
    00:00 +8°C° 0 mm 2 mps 602 mmHg 49%
    01:00 +7°C° 0 mm 2 mps 602 mmHg 50%
    02:00 +7°C° 0 mm 2 mps 601 mmHg 51%
    03:00 +7°C° 0 mm 2 mps 601 mmHg 51%
    04:00 +8°C° 0 mm 1 mps 602 mmHg 50%
    05:00 +9°C° 0 mm 1 mps 602 mmHg 49%
    06:00 +10°C° 0 mm 1 mps 603 mmHg 48%
    07:00 +12°C° 0 mm 1 mps 603 mmHg 43%
    08:00 +14°C° 0 mm 1 mps 604 mmHg 37%
    09:00 +16°C° 0 mm 1 mps 605 mmHg 31%
    10:00 +17°C° 0 mm 2 mps 605 mmHg 29%
    11:00 +18°C° 0 mm 2 mps 605 mmHg 26%
    12:00 +19°C° 0 mm 2 mps 605 mmHg 23%
    13:00 +20°C° 0 mm 3 mps 605 mmHg 22%
    14:00 +20°C° 0 mm 3 mps 605 mmHg 22%
    15:00 +21°C° 0 mm 3 mps 604 mmHg 21%
    16:00 +20°C° 0 mm 3 mps 604 mmHg 24%
    17:00 +19°C° 0 mm 3 mps 604 mmHg 26%
    18:00 +18°C° 0 mm 3 mps 604 mmHg 29%
    19:00 +17°C° 0 mm 2 mps 604 mmHg 34%
    20:00 +15°C° 0 mm 2 mps 603 mmHg 40%
    21:00 +14°C° 0 mm 2 mps 603 mmHg 45%
    22:00 +13°C° 0 mm 2 mps 603 mmHg 47%
    23:00 +12°C° 0 mm 2 mps 602 mmHg 49%

    27 May, Saturday

    Time Temperature Precipitation Wind Pressure Humidity
    00:00 +11°C° 0 mm 1 mps 601 mmHg 51%
    01:00 +11°C° 0 mm 1 mps 601 mmHg 51%
    02:00 +11°C° 0 mm 1 mps 601 mmHg 52%
    03:00 +10°C° 0 mm 1 mps 601 mmHg 52%
    04:00 +11°C° 0.1 mm 1 mps 601 mmHg 52%
    05:00 +11°C° 0.1 mm 1 mps 601 mmHg 52%
    06:00 +12°C° 0.1 mm 1 mps 601 mmHg 52%
    07:00 +13°C° 0.1 mm 1 mps 602 mmHg 47%
    08:00 +15°C° 0.1 mm 2 mps 602 mmHg 42%
    09:00 +16°C° 0.1 mm 2 mps 603 mmHg 37%
    10:00 +18°C° 0.3 mm 2 mps 603 mmHg 34%
    11:00 +19°C° 0.3 mm 3 mps 603 mmHg 31%
    12:00 +21°C° 0.3 mm 3 mps 603 mmHg 27%
    13:00 +21°C° 0.1 mm 3 mps 602 mmHg 27%
    14:00 +21°C° 0.1 mm 3 mps 602 mmHg 27%
    15:00 +21°C° 0.1 mm 3 mps 601 mmHg 27%
    16:00 +21°C° 0 mm 3 mps 601 mmHg 29%
    17:00 +20°C° 0 mm 3 mps 601 mmHg 31%
    18:00 +20°C° 0 mm 3 mps 601 mmHg 33%
    19:00 +17°C° 0 mm 3 mps 600 mmHg 39%
    20:00 +14°C° 0 mm 3 mps 600 mmHg 45%
    21:00 +12°C° 0 mm 3 mps 600 mmHg 50%
    22:00 +12°C° 0 mm 2 mps 600 mmHg 52%
    23:00 +12°C° 0 mm 2 mps 599 mmHg 55%

    28 May, Sunday

    Time Temperature Precipitation Wind Pressure Humidity
    00:00 +10°C° 0 mm 2 mps 599 mmHg 57%
    01:00 +9°C° 0 mm 2 mps 599 mmHg 57%
    02:00 +9°C° 0 mm 2 mps 599 mmHg 57%
    03:00 +8°C° 0 mm 2 mps 599 mmHg 58%
    04:00 +9°C° 0 mm 2 mps 599 mmHg 56%
    05:00 +9°C° 0 mm 2 mps 600 mmHg 55%
    06:00 +10°C° 0 mm 2 mps 600 mmHg 53%
    07:00 +13°C° 0 mm 2 mps 601 mmHg 44%
    08:00 +14°C° 0 mm 3 mps 602 mmHg 35%
    09:00 +18°C° 0 mm 3 mps 603 mmHg 26%
    10:00 +19°C° 0 mm 4 mps 603 mmHg 24%
    11:00 +20°C° 0 mm 5 mps 603 mmHg 23%
    12:00 +21°C° 0 mm 5 mps 603 mmHg 21%
    13:00 +21°C° 0 mm 6 mps 603 mmHg 21%
    14:00 +21°C° 0 mm 6 mps 603 mmHg 22%
    15:00 +21°C° 0 mm 7 mps 603 mmHg 22%
    16:00 +21°C° 0 mm 6 mps 602 mmHg 24%
    17:00 +20°C° 0 mm 5 mps 602 mmHg 27%
    18:00 +19°C° 0 mm 5 mps 602 mmHg 29%
    19:00 +15°C° 0 mm 4 mps 601 mmHg 35%
    20:00 +13°C° 0 mm 3 mps 601 mmHg 40%
    21:00 +11°C° 0 mm 3 mps 601 mmHg 45%
    22:00 +12°C° 0 mm 2 mps 601 mmHg 47%
    23:00 +10°C° 0 mm 2 mps 601 mmHg 49%
    Show more